Location: Kellogg
(38.0159°N, 90.0546°W)
Time: 22:02:06
(UTC+00:00)

SR - Pass Details

Date: 19 September 2024
Orbit: 578 x 855 km, 66.7° (Epoch: 09 October)

Event Time Altitude Azimuth Distance (km) Brightness Sun altitude
Rises 18:08:21 0° 217° (SW) 2,818 ? 52.9°
Reaches altitude 10° 18:10:39 10° 222° (SW) 1,901 ? 52.9°
Maximum altitude 18:14:48 54° 301° (WNW) 703 ? 52.7°
Drops below altitude 10° 18:18:56 10° 19° (NNE) 1,900 ? 52.6°
Sets 18:21:14 0° 24° (NNE) 2,816 ? 52.5°
